Flag for Saudi Arabia Weather past 2 weeks in Makkah, Saudi Arabia

Now
99 °F

Scattered clouds.


Feels Like: 115 °F
Forecast: 82 / 107 °F
Wind: 2 mph from Southwest

Location: Mecca Airport

Current Time: Aug 23, 2014 at 6:41:25 PM

Latest Report: Aug 23, 2014 at 6:00 PM


Visibility: 6 mi

Pressure: 29.59 "Hg

Humidity: 50%

Dew point: 77 °F

Location of MakkahLocation

Historic Weather in Makkah — Graph

°F

Makkah temperature yesterday

Maximum temperature yesterday: 108 °F (at 1:00 PM)
Minimum temperature yesterday: 90 °F (at 7:00 AM)
Average temperature yesterday: 99 °F

Past Weeks' High & Low Weather Summary

 TemperatureHumidityPressure
High111 °F (Aug 14, 2:00 PM)84% (Aug 23, 8:00 AM)29.77 "Hg (Aug 23, 8:00 AM)
Low86 °F (Aug 10, 6:00 AM)14% (Aug 17, 1:00 PM)29.56 "Hg (Aug 17, 3:00 AM)
Average98 °F36%29.65 "Hg
* Reported Aug 8 5:00 PM — Aug 23 5:00 PM, Makkah, Weather by CustomWeather, © 2014

Note: Actual official high and low records may vary slightly from our data, if they occured in-between our weather recording intervals... More about our weather records

Advertising

Makkah weather history for previous 24 hours

 ConditionsComfort  
Time TempWeatherWind HumidityBarometerVisibility
5:00 PM
Aug 23
100 °FScattered clouds.3 mph45%29.56 "Hg6 mi
4:00 PM104 °FScattered clouds.5 mph45%29.56 "Hg6 mi
3:00 PM106 °FSunny.5 mph45%29.59 "Hg10 mi
2:00 PM106 °FSunny.9 mph45%29.59 "Hg10 mi
1:00 PM104 °FSunny.9 mph48%29.62 "Hg10 mi
12:00 PM102 °FSunny.5 mph48%29.62 "Hg10 mi
11:00 AM99 °FSunny.7 mph60%29.65 "Hg10 mi
10:00 AM95 °FSunny.7 mph63%29.65 "Hg10 mi
9:00 AM91 °FSunny.7 mph75%29.65 "Hg10 mi
8:00 AM90 °FSunny.No wind84%29.62 "Hg10 mi
7:00 AM90 °FSunny.2 mph71%29.62 "Hg10 mi
6:00 AM93 °FClear.No wind56%29.59 "Hg10 mi
5:00 AM93 °FClear.No wind59%29.56 "Hg10 mi
4:00 AM93 °FClear.No wind59%29.56 "Hg10 mi
3:00 AM95 °FClear.No wind56%29.56 "Hg10 mi
1:00 AM95 °FClear.No wind60%29.59 "Hg10 mi
12:00 AM97 °FClear.No wind56%29.62 "Hg10 mi
11:00 PM
Aug 22
97 °FClear.2 mph56%29.62 "Hg10 mi
10:00 PM97 °FClear.No wind53%29.62 "Hg10 mi
9:00 PM99 °FClear.No wind50%29.62 "Hg10 mi
8:00 PM99 °FClear.No wind47%29.59 "Hg10 mi
7:00 PM100 °FPassing clouds.3 mph45%29.59 "HgN/A
6:00 PM102 °FPassing clouds.3 mph45%29.56 "HgN/A
Weather by CustomWeather, © 2014

See weather overviewHow to use our weather pages